Search  Advanced
GGBases >  7385  Results S W  ✪   ☀   웃   ❤ 
Your ISP and Government can track your torrent activity! Hide your IP with a VPNGet Started
#Title SL SizeDate
B M E 22 2D.G.F.│ [200814] [HONEYSOFT] 転生したら巨根オークだった件。 (Ver.2020-08-18/1.01) 5133 872M2020-09-25
B M E 9 2D.G.F.│ [200810] [12CUT] ママのカラダになって 5211 264M2020-09-25
B M E 6 2D.G.F.│ [200810] [お髭の獅子舞] 淫魔の谷間 268 448M2020-09-25
B M E 17 2D.G.F.│ [200811] [ノキスタ] エスカレイション! 248 786M2020-09-25
B M E 22 2D.G.F.│ [200811] [VENUS] さまぁ☆ソルト ~童貞と処女の夫婦~ 3610 905M2020-09-25
B M E 8 2D.G.F.│ [200813] [Zai Studio] 7 Sexy Sins Tadaima 249 355M2020-09-25
B M E 29 2D.G.F.│ [200815] [NAGINATA SOFT] 女勇者イリス (Ver.2020-08-19/1.03) 5328 1.08G2020-09-25
B M E 7 2D.G.F.│ [200815] [KGB] ミーアアクション! ~生贄に選ばれた猫少女~ 237 197M2020-09-25
B M E 4 2D.G.F.│ [200818] [D.R.] Crystal Defenders 226 35.6M2020-09-25
B M E 11 2D.G.F.│ [200818] [ThreadPIN] 闇墜ち魔法少女 2911 378M2020-09-25
B M E 5 2D.G.F.│ [200819] [ノワール城エントランス] アレスレコード 237 479M2020-09-25
B M E 10 2D.G.F.│ [200820] [赤月赤座堂] 瞳 3018 570M2020-09-25
B M E 35 2D.G.F.│ [200820] [吉井テック社] 淫紋魔女と変態エロエロダンジョン 8341 1.08G2020-09-25
B M E 26 2D.G.F.│*自炊品 [200925] [フロントウイング] ろけらぶ -Location Love- 神社×先輩 (DL版) 293278 1.91G2020-09-25
B M E 60 2D.G.F.│*自炊品 [200925] [bootUP!] まましす ~お母さんとわたし、どっちがいいの?~ + DLC 410425 1.22G2020-09-25
B M E 19 2D.G.F.│*自炊品 [200925] [おうちじかん] Honey*Honey*Honey! 357275 1.17G2020-09-25
B M E 194 2D.G.F.│ [200925] [アトリエかぐや BARE&BUNNY] Mama×Holic ~魅惑のママと甘々カンケイ~ 622633 1.72G2020-09-25
B M E 55 2D.G.F.│*自炊品 [200925] [Laplacian] 白昼夢の青写真 357445 4.09G2020-09-25
B M E 31 2D.G.F.│*自炊品 [200925] [きゃべつそふと] さくらの雲*スカアレットの恋 220303 3.08G2020-09-25
B M E 24 2D.G.F.│ [200925] [きゃべつそふと] さくらの雲*スカアレットの恋 パッケージ版 36529 3.08G2020-09-25
B M E 292 2D.G.F.│ [200812] [黒タイツ同好会] BLUE MOMENT (ブルーモーメント) ~搾精と射精管理の都市伝説RPG~ 3418 1.28G2020-09-23
B M E 164 2D.G.F.│ [200809] [Hoi Hoi Hoi] 異世界人妻勇者 時子 繁體中文版 204 211M2020-09-23
B M E 90 2D.G.F.│ [200809] [シャルルハンター] 黄金の辱姦戦記-女戦士よ、オークに奪われた王国を奪還せよ!- 2611 290M2020-09-23
B M E 66 2D.G.F.│ [200810] [とある教会裏のさとうきび畑] BF同好会 - Battle Fuck Club - (Ver.2020-08-22) 255 445M2020-09-23
B M E 43 2D.G.F.│ [200809] [シュガーロマンス] とらんぷる! 422 71.2M2020-09-23
B M E 143 2D.G.F.│ [200809] [ネガティブギャング] 僕たちはいけない遊びを覚えてゆく ~風雲相討学園フラット2完全版~ (Ver.5.00) 8417 700M2020-09-23
B M E 71 2D.G.F.│ [200807] [赤宮もず] リリムトピア~牢獄の淫魔姫~ (Ver.2020-08-11/1.1) 2211 245M2020-09-23
B M E 52 2D.G.F.│ [200807] [曇烏] 対蟲聖戦姫 フラワロイド ~第3章 サンドバッグと化す地下闘技場の女格闘家~ 165 128M2020-09-23
B M E 42 2D.G.F.│ [200808] [九嬢餡] 私は彼の肢体をゴミ箱に突っ込みたい 206 395M2020-09-23
B M E 160 2D.G.F.│ [200805] [Luwen Workshop] Fate/Empire of Dirt 9388 3.95G2020-09-23
B M E 50 2D.G.F.│ [200806] [リーフジオメトリ] ASYLUM/アサイラム (Ver.1.00) 259 309M2020-09-23
B M E 78 2D.G.F.│ [200806] [yosino] 孫 短編 其の四 338 455M2020-09-23
B M E 32 2D.G.F.│ [200804] [moyasix] PIGTAIL COSPACK 1 208 120M2020-09-23
B M E 81 2D.G.F.│ [200804] [ぺぺろんちーの] ゴブリンの巣穴 絶望アップグレードデータ 334 690M2020-09-21
B M E 82 2D.G.F.│ [200619] [三つ雨] 人妻ナンパの町 -- 113M2020-09-21
B M E 44 2D.G.F.│ [200702] [ヴィンセント] ぷにぺた -- 353M2020-09-21
B M E 58 2D.G.F.│ [200707] [砂時計と鉛筆] マート×テトラ 241 510M2020-09-21
B M E 67 2D.G.F.│ [200715] [マシーナリー] 秘密組織フェブラリー 唄浜支部の記録 284 35.2M2020-09-21
B M E 45 2D.G.F.│ [200716] [moyasix] PIGTAIL COSPLAY!! 206 105M2020-09-21
B M E 48 2D.G.F.│ [200725] [ザロッテン] 魔王と魔王と勇者と魔王 (Ver.2020-07-26) 202 525M2020-09-21
B M E 119 2D.G.F.│ [200801] [ナイアガラ連合] くすぐり奴隷商 ~叛逆の100日間~ 212 464M2020-09-21
B M E 89 2D.G.F.│ [200801] [トラクトリ] 絶対服従クライシス (Ver.2020-08-03/1.03) 433 512M2020-09-21
B M E 48 2D.G.F.│ [200803] [Twintail Script] 偽り魔法少女かえで (Ver.1.0) 151 194M2020-09-21
B M E 90 2D.G.F.│ [200415] [KineticDog] Endless Defeat Arena (中国語バージョン) -- 435M2020-09-21
B M E 31 2D.G.F.│ [200603] [ST Hot Dog King] Tentacle Elf -- 240M2020-09-21
B M E 47 2D.G.F.│ [200611] [ファルコン115] アーチャーさやちゃんのゆるい大冒険 (Ver.2020-06-26/1.2) -- 200M2020-09-21
B M E 96 2D.G.F.│ [141008] [PLASTICLABEL] 俺は君の生理用ナプキンを舐めたい 228 752M2020-09-21
B M E 29 2D.G.F.│ [200303] [Heart Eyes Lovers] 動くバーチャルホテルエッチ -- 78.6M2020-09-21
B M E 79 2D.G.F.│ [200308] [清水庵] 捕縛のくノ一・いぶき尋問 -- 753M2020-09-21
B M E 64 2D.G.F.│ [200321] [からあげカンパニー] 生意気な風紀委員長の中里アンリが穴に挟まったら、恨みを持っているDQN達が集まってきましたw -- 617M2020-09-21
 Search  Advanced
GGBases >  7385  Results S W  ✪   ☀   웃   ❤